Regional Weather Roundup
Issued by NWS

Home | Current Version | Previous Version | Graphics & Text | Print | Product List | Glossary On
Versions: 1 2 3 4 5 6 7 8 9 10 11 12 13 14 15 16 17 18 19 20 21 22 23 24 25 26 27 28 29 30 31 32 33 34 35 36 37 38 39 40 41 42 43 44 45 46 47 48 49 50
000
ASUS45 KCYS 030210
RWRWY

WYOMING REGIONAL WEATHER ROUNDUP
NATIONAL WEATHER SERVICE CHEYENNE WY
700 PM MST MON MAR 02 2015

NOTE:  "FAIR" INDICATES FEW OR NO CLOUDS BELOW 12,000 FEET
WITH NO SIGNIFICANT WEATHER AND/OR OBSTRUCTIONS TO VISIBILITY.

WYZ001-030300-
YELLOWSTONE NATIONAL PARK

CITY           SKY/WX    TMP DP  RH WIND       PRES   REMARKS
LK YELLOWSTONE   N/A     21  19  92 CALM      29.61F
W YELLOWSTONE  NOT AVBL

$$
WYZ002>013-054>058-071-098>099-030300-
NORTHERN WYOMING

CITY           SKY/WX    TMP DP  RH WIND       PRES   REMARKS
JACKSON        LGT SNOW  25  25 100 N9        29.58F WCI  15
CODY           CLOUDY    34  12  40 N20G25    29.69R WCI  22
GREYBULL       CLOUDY    38  13  35 NW15G22   29.64S WCI  29
WORLAND        CLOUDY    32  21  64 CALM      29.66R
SHERIDAN       CLOUDY    33  21  61 N8        29.75R WCI  26
BUFFALO        CLOUDY    31  20  63 N12       29.70R WCI  22
GILLETTE       CLOUDY    33  18  53 N9        29.70R WCI  25
HULETT         CLOUDY    34  19  55 N8        29.71R WCI  27
NEWCASTLE      FAIR      36  21  55 CALM      29.65S

$$
WYZ014>020-022>026-101>103-030300-
CENTRAL WYOMING

CITY           SKY/WX    TMP DP  RH WIND       PRES   REMARKS
BIG PINEY      CLOUDY    29  21  72 E6        29.57R WCI  23
PINEDALE       CLOUDY    23  23 100 SW5       29.56R WCI  17
DUBOIS         LGT SNOW  23  21  93 CALM      29.54F
LANDER         MOCLDY    22  15  75 SW5       29.62R WCI  16
RIVERTON       LGT SNOW  22  18  85 E5        29.63R FOG     WCI  16
CASPER         SNOW      31  30  96 NE9       29.62S VSB 1/4 WCI  23
DOUGLAS        SNOW      32  31  96 N9        29.63R VSB 1/2 WCI  24

$$
WYZ021-027>030-104>119-030300-
SOUTHERN WYOMING

CITY           SKY/WX    TMP DP  RH WIND       PRES   REMARKS
EVANSTON       SNOW      29  28  96 SW16      29.58S VSB 1/2 WCI  17
KEMMERER       LGT SNOW  30  28  93 SE6       29.58R WCI  24
FORT BRIDGER   CLOUDY    27  26  97 CALM      29.61R
ROCK SPRINGS   CLOUDY    28  26  92 S9        29.57F WCI  19
DIXON          LGT SNOW  34  33  96 SW10      29.66R WCI  26
RAWLINS        LGT SNOW  32  30  92 CALM      29.58S FOG
SARATOGA       FLURRIES  32  32 100 SW7       29.61R WCI  26
LARAMIE        FAIR      37  27  67 SW17G23   29.52F WCI  27
CHEYENNE       FAIR      31  23  72 S6        29.54F WCI  25
TORRINGTON     FAIR      33  24  69 E18       29.58F WCI  22
PINE BLUFFS    FAIR      30  27  86 SE7       29.57F WCI  23

$$



USA.gov is the U.S. government's official web portal to all federal, state and local government web resources and services.